Погода в Кубановке

Россия / Калининградская область     54°40′44″N   22°18′06″E
темп.,
°C
ветер,
м/с
пор.,
м/с
влажн.,
%
обл.,
%
осадки,
мм/ч
давл.,
гПа
погр.,
м
30 июня, чт
чт3023:00+19сз339055 0.0 101770
02:00+16ссв119778 0.0 101711
05:00+16ссв119859 0.1 101625
08:00+20св1190100 0.1 1017224
11:00+23вюв2385100 0.0 1017558
14:00+25вюв357898 0.2 1016751
17:00+27в45768 0.1 1015599
20:00+24в4108946 0.9 1015230
1 июля, пт
пт123:00+22вюв51388100 0.0 1015328
02:00+20вюв41194100 1.3 1016245
05:00+19вюв4994100 0.4 1016218
08:00+23вюв488725 0.5 1016369
11:00+27юв57701 0.0 1016823
14:00+29ююв576444 0.0 10161438
17:00+28вюв58735 0.0 1015752
20:00+24юв512825 0.0 1015320
2 июля, сб
сб223:00+22юв51378100 0.0 1017356
02:00+21ююв41076100 0.0 1017284
05:00+19ююв4128596 0.0 1016271
08:00+22юз458443 0.0 1017556
11:00+21з5690100 0.3 1019564
14:00+18зсз5997100 1.9 1021502
17:00+17зсз6109498 3.0 1021544
20:00+16зсз599094 3.0 1021514
3 июля, вс
вс323:00+14зсз3794100 0.0 1022197
02:00+13зсз3596100 0.0 1022101
05:00+13з349698 0.0 102285
08:00+18зсз348447 0.0 1021403
11:00+22зсз23690 0.0 10211056
14:00+24зсз336066 0.0 10201639
17:00+23зсз43692 0.0 10191049
20:00+19сз34830 0.0 101986
4 июля, пн
пн423:00+15сз22881 0.0 102019
02:00+14з11870 0.0 101910
05:00+14ююз22851 0.0 101815
08:00+19юз23760 0.0 1018237
11:00+23зюз23660 0.0 1018876
14:00+25юз34590 0.0 10171365
17:00+26юз266423 0.0 10171880
20:00+18з3792100 1.4 1018196